Flag for Norway Weather past 2 weeks in Førde, Norway

Now
50 °F

Drizzle. Fog.


Feels Like: 47 °F
Forecast: 53 / 62 °F
Wind: 8 mph from Southwest

Location: Forde / Bringeland

Current Time: Jul 6, 2015 at 10:08:27 PM

Latest Report: Jul 6, 2015 at 9:20 PM


Visibility: 0 mi

Pressure: 29.65 "Hg

Humidity: 94%

Dew point: 48 °F

Location of FørdeLocation

Historic Weather in Førde — Graph

°F

Førde temperature yesterday

Maximum temperature yesterday: 73 °F (at 11:50 AM)
Minimum temperature yesterday: 55 °F (at 10:50 PM)
Average temperature yesterday: 68 °F

Past Weeks' High & Low Weather Summary

 TemperatureHumidityPressure
High84 °F (Jul 1, 10:20 PM)100% (Jun 29, 6:20 AM)30.30 "Hg (Jun 29, 6:20 AM)
Low43 °F (Jun 25, 5:50 AM)32% (Jul 2, 2:20 PM)29.62 "Hg (Jul 6, 6:20 PM)
Average58 °F73%29.97 "Hg
* Reported Jun 21 8:50 PM — Jul 6 8:50 PM, Førde, Weather by CustomWeather, © 2015

Note: Actual official high and low records may vary slightly from our data, if they occured in-between our weather recording intervals... More about our weather records

Advertising

Førde weather history for previous 24 hours

 ConditionsComfort  
Time TempWeatherWind HumidityBarometerVisibility
8:50 PM
Mon, Jul 6
50 °FDrizzle. Fog.7 mph100%29.65 "Hg1 mi
8:20 PM50 °FDrizzle. Fog.6 mph100%29.65 "Hg1 mi
7:50 PM50 °FDrizzle. Fog.8 mph100%29.65 "Hg1 mi
7:20 PM52 °FDrizzle. Fog.14 mph94%29.65 "Hg1 mi
6:50 PM52 °FDrizzle. Fog.8 mph100%29.62 "Hg2 mi
6:20 PM52 °FDrizzle. Fog.7 mph100%29.62 "Hg2 mi
5:50 PM52 °FDrizzle. Fog.6 mph100%29.65 "Hg1 mi
5:20 PM52 °FDrizzle. Fog.5 mph100%29.65 "Hg1 mi
4:50 PM52 °FDrizzle. Fog.5 mph100%29.65 "Hg2 mi
3:50 PM52 °FDrizzle. Light fog.6 mph100%29.65 "Hg1 mi
3:20 PM52 °FDrizzle. Fog.6 mph100%29.65 "Hg1 mi
2:50 PM52 °FDrizzle. Fog.6 mph100%29.65 "Hg1 mi
2:20 PM52 °FDrizzle. Fog.5 mph100%29.65 "Hg1 mi
1:50 PM52 °FDrizzle. Fog.7 mph100%29.65 "Hg1 mi
1:20 PM52 °FDrizzle. Fog.6 mph100%29.65 "Hg1 mi
12:50 PM52 °FSleet. Fog.7 mph100%29.65 "Hg1 mi
12:20 PM52 °FDrizzle. Fog.5 mph100%29.65 "Hg1 mi
11:50 AM52 °FDrizzle. Dense fog.7 mph100%29.65 "Hg1 mi
11:20 AM52 °FDrizzle. Fog.7 mph100%29.65 "Hg1 mi
10:50 AM52 °FDrizzle. Fog.7 mph94%29.65 "Hg1 mi
10:20 AM52 °FDrizzle. Fog.5 mph94%29.65 "Hg1 mi
9:50 AM52 °FDrizzle. Fog.9 mph94%29.65 "Hg1 mi
9:20 AM52 °FDrizzle. Fog.10 mph100%29.65 "Hg1 mi
8:50 AM52 °FDrizzle. Fog.9 mph100%29.65 "Hg1 mi
8:20 AM54 °FDrizzle. Fog.8 mph100%29.65 "Hg1 mi
7:50 AM54 °FDrizzle. Fog.8 mph100%29.65 "Hg1 mi
7:20 AM54 °FDrizzle. Fog.10 mph100%29.65 "Hg1 mi
6:50 AM55 °FDrizzle. Fog.10 mph94%29.68 "Hg1 mi
6:20 AM55 °FDrizzle. Fog.8 mph100%29.68 "Hg0 mi
5:50 AM55 °FFog.6 mph100%29.68 "Hg0 mi
10:50 PM
Sun, Jul 5
55 °FFog.7 mph100%29.86 "Hg1 mi
10:20 PM57 °FFog.8 mph100%29.86 "Hg1 mi
Weather by CustomWeather, © 2015

See weather overviewHow to use our weather pages